HB3YKO-13 Weather Reports


time (UTC)temp
C
wind
direction
speed
KPH
gust
KPH
rain 1hr
cm
rain 24hr
cm
rain mn
cm
humidity
%
barometer
mb
20260507212433 -17 303 0.0 0.0 0.00 0.00 0.00 76
20260507211933 -17 303 0.0 0.0 0.00 0.00 0.00 76
20260507211433 -17 303 0.0 0.0 0.00 0.00 0.00 76
20260507210933 -17 303 0.0 0.0 0.00 0.00 0.00 76
20260507210433 -17 303 0.0 0.0 0.00 0.00 0.00 76
20260507205933 -17 303 0.0 0.0 0.00 0.00 0.00 74
20260507205433 -17 303 0.0 0.0 0.00 0.00 0.00 73
20260507204933 -17 303 0.0 1.6 0.00 0.00 0.00 73
20260507204433 -17 303 0.0 1.6 0.00 0.00 0.00 71
20260507203933 -17 336 0.0 3.2 0.00 0.00 0.00 71
20260507203433 -17 354 3.2 4.8 0.00 0.00 0.00 70
20260507202933 -17 351 3.2 3.2 0.00 0.00 0.00 70
20260507202433 -17 348 0.0 3.2 0.00 0.00 0.00 70
20260507201933 -17 4 0.0 0.0 0.00 0.00 0.00 70
20260507201433 -17 4 0.0 0.0 0.00 0.00 0.00 69
20260507200933 -17 4 0.0 0.0 0.00 0.00 0.00 70
20260507200433 -17 4 0.0 6.4 0.00 0.00 0.00 69
20260507195933 -17 357 4.8 4.8 0.00 0.00 0.00 68
20260507195433 -17 348 0.0 1.6 0.00 0.00 0.00 67
20260507194933 -17 32 0.0 0.0 0.00 0.00 0.00 67
20260507194433 -17 32 0.0 0.0 0.00 0.00 0.00 65
20260507193933 -17 32 0.0 0.0 0.00 0.00 0.00 64
20260507193433 -17 32 0.0 1.6 0.00 0.00 0.00 64
20260507192933 -17 320 0.0 4.8 0.00 0.00 0.00 65
20260507192433 -17 355 3.2 3.2 0.00 0.00 0.00 64
20260507191933 -17 357 1.6 6.4 0.00 0.00 0.00 63
20260507191433 -17 0 4.8 4.8 0.00 0.00 0.00 62
20260507190933 -17 358 3.2 4.8 0.00 0.00 0.00 61
20260507190433 -17 1 4.8 9.7 0.00 0.00 0.00 61
20260507185933 -17 343 8.0 8.0 0.00 0.00 0.00 61
20260507185433 -17 330 3.2 8.0 0.00 0.00 0.00 60
20260507184933 -17 9 6.4 9.7 0.00 0.00 0.00 60
20260507184433 -17 118 0.0 11.3 0.00 0.00 0.00 61
20260507183933 -17 285 3.2 11.3 0.00 0.00 0.00 60
20260507183434 -17 303 3.2 12.9 0.00 0.00 0.00 60
20260507182933 -17 334 9.7 16.1 0.00 0.00 0.00 60
20260507182433 -17 306 3.2 12.9 0.00 0.00 0.00 59
20260507181933 -17 0 11.3 14.5 0.00 0.00 0.00 54
20260507181434 -17 15 8.0 12.9 0.00 0.00 0.00 54
20260507180934 -17 309 8.0 14.5 0.00 0.00 0.00 53
20260507180434 -17 333 4.8 17.7 0.00 0.00 0.00 52
20260507175934 -6 12 12.9 17.7 0.00 0.00 0.00 55
20260507175434 -5 337 9.7 14.5 0.00 0.00 0.00 54
20260507174934 -5 8 8.0 16.1 0.00 0.00 0.00 53
20260507174434 -5 136 1.6 12.9 0.00 0.00 0.00 52
20260507173934 -5 345 9.7 17.7 0.00 0.00 0.00 52
20260507173434 -6 310 12.9 16.1 0.00 0.00 0.00 51
20260507172934 -5 319 6.4 16.1 0.00 0.00 0.00 50
20260507172434 -5 236 1.6 14.5 0.00 0.00 0.00 48
20260507171934 -5 313 9.7 14.5 0.00 0.00 0.00 49
20260507171434 -5 358 8.0 16.1 0.00 0.00 0.00 50
20260507170934 -5 312 9.7 19.3 0.00 0.00 0.00 49
20260507170434 -5 47 4.8 16.1 0.00 0.00 0.00 48
20260507165934 -5 236 1.6 14.5 0.00 0.00 0.00 48
20260507165434 -5 59 0.0 20.9 0.00 0.00 0.00 49
20260507164934 -5 209 11.3 17.7 0.00 0.00 0.00 49
20260507164434 -5 310 14.5 20.9 0.00 0.00 0.00 48
20260507163934 -5 206 8.0 16.1 0.00 0.00 0.00 47
20260507163434 -5 358 6.4 16.1 0.00 0.00 0.00 48
20260507162934 -5 312 11.3 16.1 0.00 0.00 0.00 49
20260507162434 -6 105 3.2 17.7 0.00 0.00 0.00 50
20260507161934 -6 347 14.5 16.1 0.00 0.00 0.00 50
20260507161434 -5 307 4.8 16.1 0.00 0.00 0.00 47
20260507160934 -5 50 0.0 9.7 0.00 0.00 0.00 48
20260507160434 -5 178 3.2 16.1 0.00 0.00 0.00 50
20260507155934 -6 66 9.7 9.7 0.00 0.00 0.00 51
20260507155434 -5 257 4.8 14.5 0.00 0.00 0.00 51
20260507154934 -5 284 3.2 12.9 0.00 0.00 0.00 50
20260507154434 -6 336 8.0 16.1 0.00 0.00 0.00 48
20260507153934 -6 5 8.0 16.1 0.00 0.00 0.00 48
20260507153434 -5 251 8.0 16.1 0.00 0.00 0.00 49
20260507152934 -5 347 1.6 11.3 0.00 0.00 0.00 48
20260507152434 -17 236 4.8 12.9 0.00 0.00 0.00 47
20260507151934 -17 37 8.0 14.5 0.00 0.00 0.00 100
20260507151434 -17 175 0.0 12.9 0.00 0.00 0.00 100
20260507150934 -17 187 3.2 17.7 0.00 0.00 0.00 100
20260507150434 -17 240 4.8 12.9 0.00 0.00 0.00 100
20260507145934 -17 354 11.3 12.9 0.00 0.00 0.00 100
20260507145434 -17 313 4.8 9.7 0.00 0.00 0.00 100
20260507144934 -17 47 0.0 4.8 0.00 0.00 0.00 100
20260507144434 -17 60 1.6 3.2 0.00 0.00 0.00 100
20260507143934 -17 71 0.0 6.4 0.00 0.00 0.00 100
20260507143434 -17 295 0.0 8.0 0.00 0.00 0.00 100
20260507142934 -17 104 0.0 4.8 0.00 0.00 0.00 100
20260507142434 -17 1 0.0 9.7 0.00 0.00 0.00 100
20260507141934 -17 309 0.0 6.4 0.00 0.00 0.00 100
20260507141434 -10 336 4.8 9.7 0.00 0.00 0.00 44
20260507140934 -10 272 4.8 11.3 0.00 0.00 0.00 40
20260507140434 -11 337 6.4 6.4 0.00 0.00 0.00 44
20260507135934 -10 343 6.4 6.4 0.00 0.00 0.00 44
20260507135434 -10 175 3.2 6.4 0.00 0.00 0.00 44
20260507134934 -10 32 0.0 4.8 0.00 0.00 0.00 40
20260507134434 -11 264 0.0 8.0 0.00 0.00 0.00 46
20260507133934 -11 348 4.8 12.9 0.00 0.00 0.00 45
20260507133434 -11 275 1.6 9.7 0.00 0.00 0.00 46
20260507132934 -10 258 1.6 9.7 0.00 0.00 0.00 47
20260507132434 -10 4 1.6 9.7 0.00 0.00 0.00 49
20260507131934 -10 299 6.4 9.7 0.00 0.00 0.00 47
20260507131434 -11 330 0.0 14.5 0.00 0.00 0.00 48
20260507130934 -10 313 6.4 9.7 0.00 0.00 0.00 48
20260507130434 -9 298 3.2 9.7 0.00 0.00 0.00 50
20260507125934 -9 358 8.0 9.7 0.00 0.00 0.00 49
20260507125434 -9 310 0.0 6.4 0.00 0.00 0.00 49
20260507124934 -9 299 4.8 9.7 0.00 0.00 0.00 47
20260507124434 -17 18 1.6 9.7 0.00 0.00 0.00 100
20260507123934 -9 32 0.0 8.0 0.00 0.00 0.00 47
20260507123434 -10 60 0.0 3.2 0.00 0.00 0.00 44
20260507122934 -12 8 0.0 4.8 0.00 0.00 0.00 46
20260507122434 -12 351 4.8 8.0 0.00 0.00 0.00 49
20260507121934 -13 337 4.8 8.0 0.00 0.00 0.00 50
20260507121434 -13 303 0.0 8.0 0.00 0.00 0.00 51
20260507120934 -14 345 6.4 11.3 0.00 0.00 0.00 52
20260507120434 -7 358 8.0 11.3 0.00 0.00 0.00 50
20260507115934 -7 350 4.8 12.9 0.00 0.00 0.00 50
20260507115434 -5 274 3.2 11.3 0.00 0.00 0.00 51
20260507114934 -10 195 0.0 6.4 0.00 0.00 0.00 52
20260507114434 -6 156 4.8 9.7 0.00 0.00 0.00 51
20260507113934 -10 178 1.6 11.3 0.00 0.00 0.00 53
20260507113435 -11 267 3.2 11.3 0.00 0.00 0.00 55
20260507112934 -11 250 3.2 9.7 0.00 0.00 0.00 51
20260507112434 -12 9 4.8 14.5 0.00 0.00 0.00 50
20260507111935 -13 271 4.8 14.5 0.00 0.00 0.00 50
20260507111434 -13 355 8.0 12.9 0.00 0.00 0.00 58
20260507110935 -11 136 1.6 12.9 0.00 0.00 0.00 60
20260507110435 -10 264 12.9 14.5 0.00 0.00 0.00 60
20260507105935 -12 286 11.3 16.1 0.00 0.00 0.00 60
20260507105435 -13 23 6.4 22.5 0.00 0.00 0.00 61
20260507104935 -3 262 12.9 19.3 0.00 0.00 0.00 52
20260507104435 -7 32 0.0 6.4 0.00 0.00 0.00 45
20260507103935 -7 18 0.0 6.4 0.00 0.00 0.00 46
20260507103435 -6 46 0.0 4.8 0.00 0.00 0.00 45
20260507102935 -6 151 0.0 3.2 0.00 0.00 0.00 45
20260507102435 -8 340 0.0 4.8 0.00 0.00 0.00 51
20260507101935 -5 334 0.0 6.4 0.00 0.00 0.00 49
20260507101435 -8 355 0.0 3.2 0.00 0.00 0.00 55
20260507100935 -8 284 0.0 3.2 0.00 0.00 0.00 55
20260507100435 -8 319 0.0 1.6 0.00 0.00 0.00 57
20260507095935 -10 319 0.0 4.8 0.00 0.00 0.00 56
20260507095435 -17 0 3.2 6.4 0.00 0.00 0.00 54
20260507094935 -17 352 3.2 3.2 0.00 0.00 0.00 55
20260507094435 -17 326 0.0 3.2 0.00 0.00 0.00 56
20260507093935 -17 45 0.0 3.2 0.00 0.00 0.00 56
20260507093435 -17 357 0.0 0.0 0.00 0.00 0.00 58
20260507092935 -17 351 0.0 3.2 0.00 0.00 0.00 60
20260507092435 -17 9 3.2 4.8 0.00 0.00 0.00 60
20260507091935 -17 275 0.0 3.2 0.00 0.00 0.00 60
20260507091435 -17 15 0.0 3.2 0.00 0.00 0.00 62
20260507090935 -17 8 0.0 1.6 0.00 0.00 0.00 63
20260507090435 -17 181 0.0 0.0 0.00 0.00 0.00 64
20260507085935 -17 181 0.0 4.8 0.00 0.00 0.00 65
20260507085435 -17 49 0.0 1.6 0.00 0.00 0.00 66
20260507084935 -17 227 0.0 1.6 0.00 0.00 0.00 66
20260507084435 -17 4 1.6 4.8 0.00 0.00 0.00 65
20260507083935 -17 227 0.0 1.6 0.00 0.00 0.00 69
20260507083435 -17 9 0.0 4.8 0.00 0.00 0.00 68
20260507082935 -17 336 0.0 3.2 0.00 0.00 0.00 68
20260507082435 -17 345 0.0 4.8 0.00 0.00 0.00 69
20260507081935 -17 11 0.0 4.8 0.00 0.00 0.00 69
20260507081435 -17 26 0.0 4.8 0.00 0.00 0.00 70
20260507080935 -17 25 0.0 3.2 0.00 0.00 0.00 71
20260507080435 -17 354 0.0 4.8 0.00 0.00 0.00 73
20260507075935 -17 16 3.2 6.4 0.00 0.00 0.00 67
20260507075435 -17 323 0.0 1.6 0.00 0.00 0.00 70
20260507074935 -17 331 0.0 4.8 0.00 0.00 0.00 70
20260507074435 -17 32 1.6 6.4 0.00 0.00 0.00 70
20260507073935 -17 37 0.0 4.8 0.00 0.00 0.00 76
20260507073435 -17 1 0.0 4.8 0.00 0.00 0.00 75
20260507072935 -17 336 1.6 4.8 0.00 0.00 0.00 74
20260507072435 -17 344 4.8 4.8 0.00 0.00 0.00 74
20260507071935 -17 348 0.0 3.2 0.00 0.00 0.00 77
20260507071435 -17 340 0.0 3.2 0.00 0.00 0.00 75
20260507070935 -17 312 0.0 3.2 0.00 0.00 0.00 77
20260507070435 -17 315 0.0 3.2 0.00 0.00 0.00 75
20260507065935 -17 350 0.0 0.0 0.00 0.00 0.00 77
20260507065435 -17 350 0.0 0.0 0.00 0.00 0.00 76
20260507064935 -17 350 0.0 0.0 0.00 0.00 0.00 80
20260507064435 -17 350 0.0 0.0 0.00 0.00 0.00 81
20260507063935 -17 350 0.0 0.0 0.00 0.00 0.00 81
20260507063435 -17 350 0.0 0.0 0.00 0.00 0.00 83
20260507062935 -17 350 0.0 3.2 0.00 0.00 0.00 82
20260507062435 -17 350 3.2 3.2 0.00 0.00 0.00 84
20260507061935 -17 171 0.0 0.0 0.00 0.00 0.00 85
20260507061435 -17 171 0.0 0.0 0.00 0.00 0.00 85
20260507060935 -17 171 0.0 0.0 0.00 0.00 0.00 85
20260507060435 -17 171 0.0 0.0 0.00 0.00 0.00 87
20260507055935 -17 171 0.0 0.0 0.00 0.00 0.00 86
20260507055435 -17 171 0.0 0.0 0.00 0.00 0.00 88
20260507054935 -17 171 0.0 0.0 0.00 0.00 0.00 89
20260507054435 -17 171 0.0 0.0 0.00 0.00 0.00 88
20260507053935 -17 171 0.0 0.0 0.00 0.00 0.00 88
20260507053435 -17 171 0.0 0.0 0.00 0.00 0.00 88
20260507052935 -17 171 0.0 0.0 0.00 0.00 0.00 88
20260507052435 -17 171 0.0 0.0 0.00 0.00 0.00 89
20260507051935 -17 171 0.0 0.0 0.00 0.00 0.00 89
20260507051435 -17 171 0.0 0.0 0.00 0.00 0.00 89
20260507050935 -17 171 0.0 0.0 0.00 0.00 0.00 89
20260507050435 -17 171 0.0 0.0 0.00 0.00 0.00 89
20260507045935 -17 171 0.0 0.0 0.00 0.00 0.00 89
20260507045435 -17 171 0.0 0.0 0.00 0.00 0.00 88
20260507044936 -17 171 0.0 0.0 0.00 0.00 0.00 88
20260507044436 -17 171 0.0 0.0 0.00 0.00 0.00 88
20260507043936 -17 171 0.0 0.0 0.00 0.00 0.00 88
20260507043436 -17 171 0.0 0.0 0.00 0.00 0.00 90
20260507042936 -17 171 0.0 0.0 0.00 0.00 0.00 89
20260507042436 -17 171 0.0 0.0 0.00 0.00 0.00 88
20260507041936 -17 171 0.0 0.0 0.00 0.00 0.00 88
20260507041436 -17 171 0.0 0.0 0.00 0.00 0.00 87
20260507040936 -17 171 0.0 0.0 0.00 0.00 0.00 87
20260507040436 -17 171 0.0 0.0 0.00 0.00 0.00 87
20260507035936 -17 171 0.0 0.0 0.00 0.00 0.00 87
20260507035436 -17 171 0.0 0.0 0.00 0.00 0.00 89
20260507034936 -17 171 0.0 0.0 0.00 0.00 0.00 88
20260507034436 -17 171 0.0 0.0 0.00 0.00 0.00 88
20260507033936 -17 171 0.0 0.0 0.00 0.00 0.00 88
20260507033436 -17 171 0.0 0.0 0.00 0.00 0.00 89
20260507032936 -17 171 0.0 0.0 0.00 0.00 0.00 87
20260507032436 -17 171 0.0 0.0 0.00 0.00 0.00 88
20260507031936 -17 171 0.0 0.0 0.00 0.00 0.00 89
20260507031436 -17 171 0.0 0.0 0.00 0.00 0.00 89
20260507030936 -17 171 0.0 0.0 0.00 0.00 0.00 89
20260507030436 -17 171 0.0 0.0 0.00 0.00 0.00 89
20260507025936 -17 171 0.0 0.0 0.00 0.00 0.00 90
20260507025436 -17 171 0.0 0.0 0.00 0.00 0.00 89
20260507024936 -17 171 0.0 0.0 0.00 0.00 0.00 89
20260507024436 -17 171 0.0 0.0 0.00 0.00 0.00 88
20260507023936 -17 171 0.0 0.0 0.00 0.00 0.00 86
20260507023436 -17 171 0.0 0.0 0.00 0.00 0.00 87
20260507022936 -17 171 0.0 6.4 0.00 0.00 0.00 86
20260507022436 -17 75 1.6 8.0 0.00 0.00 0.00 85
20260507021936 -17 111 4.8 11.3 0.00 0.00 0.00 85
20260507021436 -17 161 9.7 9.7 0.00 0.00 0.00 86
20260507020936 -17 191 0.0 0.0 0.00 0.00 0.00 88
20260507020436 -17 191 0.0 0.0 0.00 0.00 0.00 89
20260507015936 -17 191 0.0 1.6 0.00 0.00 0.00 89
20260507015436 -17 219 1.6 1.6 0.00 0.00 0.00 89
20260507014936 -17 344 0.0 0.0 0.00 0.00 0.00 89
20260507014436 -17 344 0.0 0.0 0.00 0.00 0.00 89
20260507013936 -17 344 0.0 0.0 0.00 0.00 0.00 89
20260507013436 -17 344 0.0 0.0 0.00 0.00 0.00 89
20260507012936 -17 344 0.0 0.0 0.00 0.00 0.00 89
20260507012437 -17 344 0.0 0.0 0.00 0.00 0.00 89
20260507011936 -17 344 0.0 0.0 0.00 0.00 0.00 89
20260507011436 -17 344 0.0 0.0 0.00 0.00 0.00 89
20260507010936 -17 344 0.0 0.0 0.00 0.00 0.00 88
20260507010436 -17 344 0.0 0.0 0.00 0.00 0.00 88
20260507005936 -17 344 0.0 0.0 0.00 0.00 0.00 88
20260507005436 -17 344 0.0 0.0 0.00 0.00 0.00 90
20260507004936 -17 344 0.0 0.0 0.00 0.00 0.00 89
20260507004436 -17 344 0.0 0.0 0.00 0.00 0.00 89
20260507003936 -17 344 0.0 0.0 0.00 0.00 0.00 88
20260507003436 -17 344 0.0 1.6 0.00 0.00 0.00 88
20260507002936 -17 271 0.0 0.0 0.00 0.00 0.00 88
20260507002436 -17 271 0.0 3.2 0.00 0.00 0.00 87
20260507001936 -17 281 0.0 0.0 0.00 0.00 0.00 88
20260507001436 -17 281 0.0 0.0 0.00 0.00 0.00 89
20260507000936 -17 281 0.0 0.0 0.00 0.00 0.00 89
20260507000436 -17 281 0.0 0.0 0.00 0.00 0.00 89
20260506235936 -17 281 0.0 0.0 0.00 0.00 0.00 89
20260506235436 -17 281 0.0 0.0 0.00 0.00 0.00 90
20260506234936 -17 281 0.0 0.0 0.00 0.00 0.00 90
20260506234436 -17 281 0.0 0.0 0.00 0.00 0.00 89
20260506233936 -17 281 0.0 1.6 0.00 0.00 0.00 88
20260506233436 -17 267 1.6 4.8 0.00 0.00 0.00 88
20260506232936 -17 260 0.0 0.0 0.00 0.00 0.00 89
20260506232436 -17 260 0.0 0.0 0.00 0.00 0.00 90
20260506231936 -17 293 0.0 6.4 0.00 0.00 0.00 89
20260506231436 -17 250 0.0 8.0 0.00 0.00 0.00 88
20260506230936 -17 278 6.4 8.0 0.00 0.00 0.00 87
20260506230436 -17 271 1.6 3.2 0.00 0.00 0.00 87
20260506225936 -17 132 0.0 0.0 0.00 0.00 0.00 89
20260506225436 -17 132 0.0 0.0 0.00 0.00 0.00 88
20260506224936 -17 132 0.0 0.0 0.00 0.00 0.00 88
20260506224436 -17 132 0.0 0.0 0.00 0.00 0.00 88
20260506223936 -17 132 0.0 4.8 0.00 0.00 0.00 89
20260506223436 -17 39 0.0 9.7 0.00 0.00 0.00 89
20260506222936 -17 45 0.0 14.5 0.00 0.00 0.00 89
20260506222436 -17 158 6.4 12.9 0.00 0.00 0.00 89
20260506221936 -17 133 11.3 14.5 0.00 0.00 0.00 89
20260506221436 -17 149 11.3 14.5 0.00 0.00 0.00 88
20260506220936 -17 147 3.2 4.8 0.00 0.00 0.00 87
20260506220436 -17 126 1.6 4.8 0.00 0.00 0.00 86
20260506215936 -17 205 0.0 0.0 0.00 0.00 0.00 85
20260506215436 -17 205 0.0 3.2 0.00 0.00 0.00 85
20260506214936 -17 192 3.2 4.8 0.00 0.00 0.00 85
20260506214437 -17 46 0.0 11.3 0.00 0.00 0.00 83
20260506213937 -17 56 0.0 9.7 0.00 0.03 0.00 84
20260506213437 -17 14 0.0 6.4 0.00 0.03 0.00 84
20260506212937 -17 347 1.6 14.5 0.00 0.03 0.00 81